Regional Weather Roundup
Issued by NWS

Home | Current Version | Previous Version | Graphics & Text | Print | Product List | Glossary Off
Versions: 1 2 3 4 5 6 7 8 9 10 11 12 13 14 15 16 17 18 19 20 21 22 23 24 25 26 27 28 29 30 31 32 33 34 35 36 37 38 39 40 41 42 43 44 45 46 47 48 49 50

000
ASUS43 KMPX 030001
RWRMN
WEATHER ROUNDUP FOR MINNESOTA
NATIONAL WEATHER SERVICE TWIN CITIES/CHANHASSEN MN
700 PM CDT MON MAY 02 2016


NOTE: "FAIR" INDICATES FEW OR NO CLOUDS BELOW 12,000 FEET WITH NO
SIGNIFICANT WEATHER AND/OR OBSTRUCTIONS TO VISIBILITY. N/A MEANS
CURRENT SKY AND/OR WEATHER CONDITIONS ARE NOT AVAILABLE.

MNZ060>063-068>070-030100-
   Twin Cities Metro

CITY           SKY/WX    TMP DP  RH WIND       PRES   REMARKS
TWIN CITIES    MOSUNNY   66  29  24 W7        30.00S
6HR MIN TEMP:  62; 6HR MAX TEMP:  67;

ST PAUL        SUNNY     63  32  31 SW8       30.00S
CRYSTAL        SUNNY     66  29  24 W8        29.99S
BLAINE         MOSUNNY   66  30  26 VRB3      29.99S
EDEN PRAIRIE   SUNNY     65  28  24 W6        29.99S
6HR MIN TEMP:  64; 6HR MAX TEMP:  68;

SOUTH ST PAUL  SUNNY     65  31  27 S6        29.99S
LAKE ELMO      FAIR      63  34  34 SW3       30.01S
$$
MNZ001>005-007-008-013>017-022>024-027-028-030100-
   Northwest Minnesota

CITY           SKY/WX    TMP DP  RH WIND       PRES   REMARKS
BEMIDJI        SUNNY     66  27  23 CALM      29.95S
HALLOCK        MOSUNNY   70  21  16 NW9       29.94S
ROSEAU         MOSUNNY   68  27  21 W6        29.95S
WARROAD        SUNNY     61  36  39 E3        29.95F
THIEF RVR FALL SUNNY     68  23  18 CALM      29.96S
CROOKSTON      SUNNY     70  25  18 N5        29.95S
FOSSTON        SUNNY     66  25  20 W6        29.97R
DETROIT LAKES  SUNNY     64  27  24 W6        29.99S
MOORHEAD       SUNNY     68  32  26 W9        29.97R
PARK RAPIDS    SUNNY     66  27  23 SW7       29.96F
MAHNOMEN       FAIR      67  27  22 W6        29.96S
$$
MNZ006-009>011-018-025>026-030100-
   North Central Minnesota

CITY           SKY/WX    TMP DP  RH WIND       PRES   REMARKS
BAUDETTE       SUNNY     64  28  25 N10       29.95R
FLAG ISLAND    MOSUNNY   61  32  33 SE3       29.93F
INTL FALLS     SUNNY     67  26  21 W6        29.93F
6HR MIN TEMP:  62; 6HR MAX TEMP:  68;

WASKISH        SUNNY     64  28  25 CALM      29.95F
BIG FORK       MOSUNNY   66  27  22 S5        29.95S
LONGVILLE      SUNNY     66  27  22 CALM      29.96F
GRAND RAPIDS   SUNNY     64  28  25 CALM      29.97F
CRANE LAKE     SUNNY     64  23  20 SW3       29.95F
ORR            MOSUNNY   66  21  18 CALM      29.92F
COOK           MOSUNNY   64  28  25 SW3       29.95S
WALKER         FAIR      65  26  23 CALM      29.95F
$$
MNZ012-019>021-037-030100-
   Northeast Minnesota

CITY           SKY/WX    TMP DP  RH WIND       PRES   REMARKS
DULUTH         MOSUNNY   61  30  31 S10       29.97F
6HR MIN TEMP:  60; 6HR MAX TEMP:  64;

ELY            MOSUNNY   63  27  25 W6        29.95S
HIBBING        SUNNY     63  28  26 W5        29.95S
EVELETH        MOSUNNY   63  28  27 W8        29.97S
DULUTH HARBOR  SUNNY     43  37  81 N6        29.99S
TWO HARBORS    SUNNY     59  37  44 CALM      29.96F
SILVER BAY     SUNNY     57  30  35 E3        29.97S
GRAND MARAIS     N/A     42  34  73 SW3       30.00F
G MARAIS ARPRT SUNNY     50  27  40 S6        30.00F
$$
MNZ029>031-032-039>041-046>048-054>057-064-030100-
   West Central Minnesota

CITY           SKY/WX    TMP DP  RH WIND       PRES   REMARKS
FERGUS FALLS   PTSUNNY   64  32  29 CALM      29.95R
WHEATON        PTSUNNY   70  34  26 S6        29.98S
MORRIS         MOSUNNY   66  30  26 S5        29.97S
ALEXANDRIA     SUNNY     63  28  26 S5        29.99S
ELBOW LAKE     FAIR      63  31  30 CALM      29.98S
WADENA         MOSUNNY   64  30  27 W5        29.98S
GLENWOOD       MOSUNNY   66  30  26 S6        29.99S
APPLETON       SUNNY     66  27  22 SW5       29.97S
BENSON         SUNNY     66  27  22 W6        29.98S
ORTONVILLE     SUNNY     64  30  27 S7        29.97S
MADISON        SUNNY     66  28  24 CALM      29.98S
WILLMAR        FAIR      64  30  27 CALM      30.00S
$$
MNZ033>034-036-042>043-049>051-058-059-030100-
   Central Minnesota

CITY           SKY/WX    TMP DP  RH WIND       PRES   REMARKS
ST CLOUD       PTSUNNY   64  32  30 SW5       29.99S
6HR MIN TEMP:  63; 6HR MAX TEMP:  68;

SAUK CENTRE    MOCLDY    63  31  29 CALM      29.99S
PAYNESVILLE    MOSUNNY   64  26  24 CALM      29.99S
AITKIN         SUNNY     66  21  18 S8        29.96F
PINE RIVER     SUNNY     64  36  34 S9        30.00S
BRAINERD       SUNNY     63  32  31 S7        29.98F
STAPLES        CLOUDY    63  28  27 CALM      29.98S
LONG PRAIRIE   FAIR      61  32  33 CALM      30.00S
LITTLE FALLS   PTSUNNY   64  28  25 SW3       30.00R
LITCHFIELD     SUNNY     64  34  32 CALM      30.00S
BUFFALO        SUNNY     64  30  27 W3        30.01S
MAPLE LAKE     MOSUNNY   66  34  30 CALM      30.01S
HUTCHINSON     MOSUNNY   66  37  34 CALM      30.01S
$$
MNZ037-044-045-052-053-030100-
   East Central Minnesota

CITY           SKY/WX    TMP DP  RH WIND       PRES   REMARKS
PRINCETON      PTSUNNY   66  32  28 CALM      29.99F
MORA           SUNNY     63  32  31 W5        30.01S
CAMBRIDGE      MOSUNNY   66  43  42 N3        29.98S
RUSH CITY      SUNNY     64  31  28 CALM      30.00S
MOOSE LAKE     PTSUNNY   63  32  31 SW5       29.96F
HINCKLEY       CLOUDY    63  36  36 SW5       29.99S
CLOQUET        MOSUNNY   63  27  25 CALM      29.97F
MCGREGOR       SUNNY     63  32  31 S6        29.98F
$$
MNZ071>073-080-081-089-090-097-098-030100-
   Southwest Minnesota

CITY           SKY/WX    TMP DP  RH WIND       PRES   REMARKS
MONTEVIDEO     SUNNY     66  30  26 W3        30.00S
GRANITE FALLS  MOSUNNY   66  32  28 W3        30.00S
CANBY          SUNNY     67  34  28 SW5       29.99F
MARSHALL       MOSUNNY   66  34  30 SW8       29.99F
REDWOOD FALLS  MOSUNNY   63  34  33 S7        29.99S
OLIVIA         SUNNY     64  32  29 SW7       29.98F
PIPESTONE      SUNNY     61  37  41 SW7       30.01S
WINDOM         SUNNY     63  32  31 CALM      30.02S
WORTHINGTON    SUNNY     60  40  47 SW3       30.02F
JACKSON        MOSUNNY   61  32  33 SW5       30.03S
TRACY          MOSUNNY   63  35  35 SW3       30.00F
SLAYTON        MOSUNNY   61  34  36 SE5       30.02S
$$
MNZ065>067-074>077-082>085-091>093-030100-
   South Central Minnesota

CITY           SKY/WX    TMP DP  RH WIND       PRES   REMARKS
MANKATO        MOSUNNY   64  32  29 SW8       30.01S
NEW ULM        SUNNY     63  34  34 S3        30.00F
ST JAMES       SUNNY     57  30  35 SW5       30.03S
FAIRMONT       MOSUNNY   61  34  36 W6        30.02S
GLENCOE        SUNNY     65  36  34 CALM      29.99F
FARIBAULT      SUNNY     64  30  27 W3        30.01S
OWATONNA       PTSUNNY   64  30  27 W9        30.01S
WASECA         PTSUNNY   63  32  31 W7        30.03S
ALBERT LEA     SUNNY     63  36  36 SW1       30.02S
$$
MNZ078>079-086>088-094>096-030100-
   Southeast Minnesota

CITY           SKY/WX    TMP DP  RH WIND       PRES   REMARKS
ROCHESTER      CLOUDY    60  41  49 SW5       30.03R
6HR MIN TEMP:  60; 6HR MAX TEMP:  64;

RED WING       MOSUNNY   64  34  32 SE5       29.99S
STANTON        MOSUNNY   65  30  27 W7        29.99S
DODGE CENTER   PTSUNNY   63  37  39 SW6       30.01F
WINONA         SUNNY     63  34  34 CALM      30.01S
AUSTIN         SUNNY     59  39  47 CALM      30.02S
PRESTON        SUNNY     58  39  50 S6        30.03S
$$
ABBREVIATIONS USED IN REMARKS
   TC - TEMPERATURES IN CELSIUS
  WCI - WIND CHILL INDEX
   HX - HEAT INDEX
  VSB - VISIBILITY
$$




USA.gov is the U.S. government's official web portal to all federal, state and local government web resources and services.